Tracking 30120 objects as of 6-Feb-2025
HD Live streaming from Space Station
objects crossing your sky now

PEGASUS DEB

Track PEGASUS DEB now!
10-day predictions


NORAD ID: 39320
Int'l Code: 1994-029AFF
Perigee: 590.1 km
Apogee: 1,004.0 km
Inclination: 81.8 °
Period: 100.7 minutes
Semi major axis: 7168 km
RCS: 0.0137 m2 (small)
Launch date: May 19, 1994
Source: United States (US)
Launch site: AIR FORCE WESTERN TEST RANGE (AFWTR)

Note: This is SATELLITE DEBRIS
Your satellite tracking list
Your tracking list is empty




NASA's NSSDC Master Catalog

Two Line Element Set (TLE):
1 39320U 94029AFF 25034.17710984  .00002735  00000-0  65923-3 0  9997
2 39320  81.7596 208.4255 0288748  54.6660 308.1150 14.30543784655840
Source of the keplerian elements: AFSPC